This is the latest recevied weather packets stored in our database for station/object JF2ZGN-13. If no packets are shown the sender has not sent any weather packets the latest 10 day(s).
| Time | Temp. | Humidity | Pressure | Rain* | Wind** | Luminosity | Snow |
|---|---|---|---|---|---|---|---|
| 1787732857 | 25.56° C | 50% | 908.7 hPa | 0 mm | - | - | - |
| 1787732256 | 25° C | 51% | 908.6 hPa | 0 mm | - | - | - |
| 1787731655 | 25° C | 47% | 908.7 hPa | 0 mm | - | - | - |
| 1787731055 | 25° C | 49% | 908.6 hPa | 0 mm | - | - | - |
| 1787730454 | 25.56° C | 50% | 908.8 hPa | 0 mm | - | - | - |
| 1787729853 | 25.56° C | 49% | 908.9 hPa | 0 mm | - | - | - |
| 1787729252 | 26.11° C | 49% | 908.9 hPa | 0 mm | - | - | - |
| 1787728652 | 26.67° C | 50% | 909.1 hPa | 0 mm | - | - | - |
| 1787728052 | 26.67° C | 51% | 909.1 hPa | 0 mm | - | - | - |
| 1787727451 | 27.22° C | 47% | 909.1 hPa | 0 mm | - | - | - |
| 1787726851 | 26.67° C | 47% | 909.1 hPa | 0 mm | - | - | - |
| 1787726250 | 26.67° C | 47% | 909 hPa | 0 mm | - | - | - |
| 1787725650 | 26.67° C | 48% | 909.1 hPa | 0 mm | - | - | - |
| 1787725049 | 26.11° C | 49% | 909 hPa | 0 mm | - | - | - |
| 1787724449 | 26.11° C | 48% | 909.1 hPa | 0 mm | - | - | - |
| 1787723849 | 25.56° C | 49% | 909.2 hPa | 0 mm | - | - | - |
| 1787723247 | 25° C | 52% | 909 hPa | 0 mm | - | - | - |
| 1787722648 | 25° C | 52% | 909.2 hPa | 0 mm | - | - | - |
| 1787721446 | 25.56° C | 54% | 908.9 hPa | 0 mm | - | - | - |
| 1787720846 | 25.56° C | 53% | 909.2 hPa | 0 mm | - | - | - |
| 1787720246 | 25.56° C | 51% | 909.2 hPa | 0 mm | - | - | - |
| 1787719645 | 25° C | 51% | 909.3 hPa | 0 mm | - | - | - |
| 1787719045 | 25° C | 54% | 909.1 hPa | 0 mm | - | - | - |
| 1787718444 | 25.56° C | 56% | 909.4 hPa | 0 mm | - | - | - |
| 1787717844 | 26.11° C | 58% | 909.3 hPa | 0 mm | - | - | - |
* Rain since midnight (hover to see other rain measurements)
** Current wind speed in m/s (hover to see current wind gust speed)